sat.trackr.live / text

‹ back to catalog

IRIDIUM 173

NORAD 43925 · 2019-002D

PAYLOAD ACTIVE UNKNOWN

§ Identity

Operator
Country
US
Launch date
2019-01-11
Launch site
AFWTR
Launch vehicle
Mass (kg)
RCS (m²)

Purposes: comms

External: N2YO · Heavens-Above · Gunter

§ Orbital elements

Epoch: 2026-05-25T02:14:22.967232Z

Period
100.40 min
Inclination
86.3982°
Eccentricity
0.0002281
Mean motion
14.34217821 rev/d
Perigee alt
776.0 km
Apogee alt
779.3 km
Semi-major
7,155.8 km
B*
8.1981e-6
RAAN
3.2191°
Arg perigee
86.3053°
Mean anomaly
273.8403°
Rev number
38,564

§ Raw data

IRIDIUM 1731 43925U 19002D   26145.09332138  .00000043  00000+0  81981-5 0  99902 43925  86.3982   3.2191 0002281  86.3053 273.8403 14.34217821385641

JSON: /api/v1/satellites/43925 · /tle

For live sub-satellite position, see the globe view (requires WebGL).

§ Visibility from observer

Set your observer location to see the next 7 days of passes ≥ 10°. The values pass through the URL so the page stays shareable.

No JS? Fill the form by hand. The geolocation button needs JavaScript.